Location: *
(45.1961°N, 1.9694°E)
Time: 11:01:19
(UTC+00:00)

Cosmos 2151 Rocket - Pass Details

Date: 25 August 2019
Orbit: 617 x 643 km, 82.5° (Epoch: 22 September)

Event Time Altitude Azimuth Distance (km) Brightness Sun altitude
Exits shadow 21:27:51 46° 41° (NE) 862 4.2 -25.2°
Drops below altitude 10° 21:31:11 10° 16° (NNE) 2,021 6.6 -25.6°
Sets 21:33:26 0° 13° (NNE) 2,929 7.5 -25.8°
